Regional Weather Roundup
Issued by NWS Albany, NY

Home | Current Version | Previous Version | Text Only | Print | Product List | Glossary On
Versions: 1 2 3 4 5 6 7 8 9 10 11 12 13 14 15 16 17 18 19 20 21 22 23 24 25 26 27 28 29 30 31 32 33 34 35 36 37 38 39 40 41 42 43 44 45 46 47 48
000
ASUS41 KALY 040310
RWRALY

NEW YORK STATE HOURLY WEATHER ROUNDUP
NATIONAL WEATHER SERVICE ALBANY NY
1100 PM EDT FRI JUL 03 2015

NOTE: "FAIR" INDICATES FEW OR NO CLOUDS BELOW 12,000 FEET WITH NO
SIGNIFICANT WEATHER AND/OR NO OBSTRUCTIONS TO VISIBILITY.

NYZ032-033-038>043-046>054-057>066-NYZ062>081-040400-
EAST


CITY           SKY/WX    TMP DP  RH WIND       PRES   REMARKS
ALBANY         CLOUDY    65  50  58 CALM      29.97S
GLENS FALLS    PTCLDY    59  53  80 CALM      29.97S
POUGHKEEPSIE   CLOUDY    65  57  75 CALM      29.96S
NEWBURGH       MOCLDY    70  55  60 VRB5      29.99S
MONTGOMERY     MOCLDY    63  58  83 CALM      29.97S
WHITE PLAINS   MOCLDY    66  58  75 SE3       29.99S
ISLIP          CLOUDY    69  60  73 S5        29.98S
NEW YORK CITY  CLOUDY    72  59  63 S8        29.98R
CENTRAL PARK   CLOUDY    72  59  63 CALM      30.01R
$$

NYZ005>009-017-018-044>046-055-056-040400-
CENTRAL


CITY           SKY/WX    TMP DP  RH WIND       PRES   REMARKS
FULTON         MOCLDY    56  50  80 E3        29.93F
SYRACUSE       CLOUDY    62  56  80 E3        29.93F
ROME           MOCLDY    60  50  69 CALM      29.97S
ELMIRA         MOCLDY    63  59  87 CALM      29.93S
BINGHAMTON     MOCLDY    64  52  64 SE5       29.97F
MONTICELLO     MOCLDY    63  55  77 CALM      30.02R
$$

NYZ026>034-041>043-040400-
NORTH


CITY           SKY/WX    TMP DP  RH WIND       PRES   REMARKS
WATERTOWN      MOCLDY    54  50  86 E5        29.95S
FORT DRUM      NOT AVBL
MASSENA        MOCLDY    56  52  86 CALM      29.95F
SARANAC LAKE   PTCLDY    50  48  93 CALM      29.99S
PLATTSBURGH    PTCLDY    58  55  90 W3        29.95S
$$

NYZ001>004-010>016-019>021-040400-
WEST


CITY           SKY/WX    TMP DP  RH WIND       PRES   REMARKS
NIAGARA FALLS  MOCLDY    62  48  60 CALM      29.93R
BUFFALO        CLOUDY    64  50  60 N3        29.93S
DUNKIRK        CLOUDY    62  58  86 CALM      29.93S
JAMESTOWN      CLOUDY    63  52  67 N6        29.95F
WELLSVILLE     CLOUDY    66  57  72 S7        29.98S
ROCHESTER      MOCLDY    64  44  48 E6        29.93F
PENN YAN       MOCLDY    62  57  83 CALM      29.94F
$$

             KEY
       WCI = WIND CHILL INDEX
       VSB = VISIBILITY
       HX  = HEAT INDEX
$$



USA.gov is the U.S. government's official web portal to all federal, state and local government web resources and services.